Flag for South Korea Weather past 2 weeks in Daegu, South Korea

Now
64 °F

Mostly cloudy.


Feels Like: 64 °F
Forecast: 51 / 60 °F
Wind: 13 mph from Southeast

Location: Taegu Ab

Current Time: Oct 21, 2014 at 1:43:15 PM

Latest Report: Oct 21, 2014 at 1:00 PM


Visibility: 6 mi

Pressure: 29.95 "Hg

Humidity: 83%

Dew point: 59 °F

Location of DaeguLocation

Historic Weather in Daegu — Graph

°F

Daegu temperature yesterday

Maximum temperature yesterday: 68 °F (at 4:00 PM)
Minimum temperature yesterday: 32 °F (at 9:00 PM)
Average temperature yesterday: 61 °F

Past Weeks' High & Low Weather Summary

 TemperatureHumidityPressure
High79 °F (Oct 10, 1:00 PM)100% (Oct 20, 9:00 PM)30.30 "Hg (Oct 20, 9:00 PM)
Low32 °F (Oct 20, 9:00 PM)18% (Oct 16, 5:00 PM)29.71 "Hg (Oct 13, 11:00 AM)
Average61 °F69%30.10 "Hg
* Reported Oct 6 12:00 Noon — Oct 21 12:00 Noon, Daegu, Weather by CustomWeather, © 2014

Note: Actual official high and low records may vary slightly from our data, if they occured in-between our weather recording intervals... More about our weather records

Advertising

Daegu weather history for previous 24 hours

 ConditionsComfort  
Time TempWeatherWind HumidityBarometerVisibility
12:00 PM
Oct 21
66 °FLight rain. Mostly cloudy.14 mph73%29.95 "Hg6 mi
11:47 AM66 °FLight rain. Mostly cloudy.13 mph78%29.98 "Hg6 mi
11:00 AM66 °FMostly cloudy.12 mph83%29.98 "Hg6 mi
10:00 AM64 °FMostly cloudy.8 mph88%29.98 "Hg5 mi
9:45 AM64 °FMostly cloudy.10 mph88%29.98 "Hg5 mi
9:00 AM66 °FFog.5 mph94%29.98 "Hg2 mi
8:00 AM64 °FFog.2 mph100%29.98 "Hg2 mi
7:00 AM64 °FDrizzle. Fog.2 mph94%29.98 "Hg1 mi
6:00 AM64 °FLight rain. Fog.3 mph100%29.98 "Hg1 mi
5:00 AM64 °FLight rain. Fog.1 mph100%29.98 "Hg1 mi
4:00 AM64 °FRain. Fog.1 mph100%29.98 "Hg1 mi
3:00 AM64 °FLight rain. Fog.1 mph100%29.99 "Hg1 mi
2:00 AM66 °FLight rain. Fog.1 mph94%30.00 "Hg1 mi
1:00 AM66 °FLight rain. Fog.1 mph94%30.01 "Hg1 mi
12:00 AM64 °FDrizzle. Fog.1 mph100%30.01 "Hg1 mi
11:00 PM
Oct 20
64 °FLight rain. Fog.1 mph100%30.02 "Hg1 mi
10:00 PM66 °FLight rain. Fog.1 mph94%30.01 "Hg1 mi
9:00 PM32 °FLight rain. Ice fog.1 mph100%30.01 "Hg1 mi
8:00 PM66 °FLight rain. Fog.2 mph94%30.01 "Hg1 mi
7:00 PM66 °FLight rain. Fog.1 mph94%30.01 "Hg1 mi
6:03 PM66 °FLight rain. Fog.1 mph94%29.98 "Hg1 mi
5:00 PM68 °FLight rain. Fog.1 mph88%29.98 "Hg2 mi
4:00 PM68 °FLight rain. Fog.1 mph88%29.95 "Hg2 mi
3:00 PM66 °FLight rain. Fog.1 mph94%29.98 "Hg2 mi
2:00 PM66 °FLight rain. Fog.1 mph94%29.98 "Hg2 mi
Weather by CustomWeather, © 2014

See weather overviewHow to use our weather pages